Location: Street
(51.1247°N, 2.7429°W)
Time: 14:51:38
(UTC+00:00)

SR - Pass Details

Date: 03 December 2020
Orbit: 575 x 880 km, 66.7° (Epoch: 25 January)

Event Time Altitude Azimuth Distance (km) Brightness Sun altitude
Rises 16:15:33 0° 161° (SSE) 2,814 ? -2.1°
Reaches altitude 10° 16:18:45 10° 135° (SE) 1,958 ? -2.5°
Maximum altitude 16:20:55 14° 105° (ESE) 1,767 ? -2.8°
Drops below altitude 10° 16:23:09 10° 76° (ENE) 2,037 ? -3.1°
Enters shadow 16:25:15 - 58° (ENE) 2,591 ? -3.4°
Sets 16:26:35 0° 51° (NE) 3,021 - -3.5°
